Regional Weather Roundup
Issued by NWS

Home | Current Version | Previous Version | Graphics & Text | Print | Product List | Glossary On
Versions: 1 2 3 4 5 6 7 8 9 10 11 12 13 14 15 16 17 18 19 20 21 22 23 24 25 26 27 28 29 30 31 32 33 34 35 36 37 38 39 40 41 42 43 44 45 46 47 48 49 50
000
ASUS45 KSLC 121410
RWRUT

UTAH REGIONAL WEATHER ROUNDUP
NATIONAL WEATHER SERVICE SALT LAKE CITY UT
800 AM MDT SAT JUL 12 2014

UTZ001>011-023>025-121500-

NORTHERN UTAH

CITY           SKY/WX    TMP DP  RH WIND       PRES   REMARKS
HILL AFB       NOT AVBL
LOGAN          SUNNY     61  56  83 SW9       30.23R
OGDEN          SUNNY     70  55  59 S6        30.19R
PROVO AIRPORT  NOT AVBL
SALT LAKE CITY MOSUNNY   74  57  55 CALM      30.17R
VERNAL         SUNNY     70  32  24 NW5       30.24R
WENDOVER       MOSUNNY   73  54  49 CALM      30.19R
HEBER CITY     SUNNY     61  54  77 CALM      30.30S
WEST JORDAN    SUNNY     73  61  64 CALM      30.21R

$$

UTZ012>022-026-027-121500-

SOUTHERN UTAH

CITY           SKY/WX    TMP DP  RH WIND       PRES   REMARKS
BRYCE CANYON   SUNNY     57  46  66 W5        30.40R
CEDAR CITY     SUNNY     64  47  53 CALM      30.25R
MILFORD        MOSUNNY   65  50  58 S7        30.21R
MOAB/CYNLANDS  SUNNY     78  54  43 SE6       30.13R
PRICE          SUNNY     75  52  44 N10       30.26R
ST GEORGE      NOT AVBL

$$

REGIONAL REPORTS     COLORADO/ARIZONA

CITY           SKY/WX    TMP DP  RH WIND       PRES   REMARKS
CRAIG, CO      MOSUNNY   60  59  96 CALM      30.32R
GRAND JUNCTION SUNNY     75  53  46 SE7       30.19R
RIFLE          SUNNY     64  56  75 CALM      30.27S
MONTROSE       MOSUNNY   68  53  58 S7        30.28S
CORTEZ         SUNNY     67  54  63 NE3       30.29R
PAGE, AZ       MOSUNNY   80  43  26 SE5       30.14R
GRAND CANYON   PTSUNNY   57  51  80 CALM      30.32R
KINGMAN        SUNNY     73  51  46 W3        30.09R
FLAGSTAFF      MOSUNNY   61  49  64 CALM      30.35R

$$

REGIONAL REPORTS    NEVADA/IDAHO/WYOMING

CITY           SKY/WX    TMP DP  RH WIND       PRES   REMARKS
LAS VEGAS, NV  MOSUNNY   81  40  23 S10       29.96R
ELY            SUNNY     60  50  69 S8        30.32S
ELKO           MOSUNNY   63  56  78 CALM      30.24S
POCATELLO, ID  SUNNY     73  51  46 CALM      30.21R
BURLEY         CLOUDY    67  58  72 CALM      30.17R
EVANSTON, WY   SUNNY     58  53  84 CALM      30.39R
ROCK SPRINGS   PTSUNNY   60  52  74 CALM      30.37R

$$



USA.gov is the U.S. government's official web portal to all federal, state and local government web resources and services.